Theta_e
287 292 296 298 299 300 297 297 294 298 299 302 305 308 309 310 312 315 315 317 320 321 321 320 319 319 319 317 319 318 318 319 318 315 312 311 310 309 309 307 307 307 306 306
287 293 296 295 299 300 299 299 298 301 301 308 309 311 310 311 313 313 315 318 321 321 320 321 321 319 317 316 317 318 317 317 316 313 310 309 308 307 305 305 305 304 302 303
280 288 289 288 295 298 299 300 299 295 299 305 307 309 308 308 310 310 311 319 321 321 321 321 321 320 316 316 316 314 313 312 312 310 308 306 305 304 303 302 301 299 300 300
279 284 278 292 297 298 295 298 296 298 303 305 305 309 308 309 309 311 313 317 317 318 321 318 317 315 315 315 313 313 311 309 307 305 304 303 302 302 302 302 299 298 297 298
277 277 285 288 293 294 293 291 303 302 304 306 308 306 311 316 314 313 314 315 315 315 316 315 314 314 314 314 313 311 307 304 303 303 302 301 299 298 299 298 297 296 297 296
279 270 273 286 294 299 301 286 303 304 303 303 308 301 306 312 313 312 312 312 311 313 313 313 313 313 312 308 305 303 302 302 301 300 299 297 297 297 297 296 295 296 295 297
280 278 283 290 295 300 288 289 301 305 303 305 304 307 310 312 310 310 310 309 309 309 308 311 311 307 303 301 300 301 301 301 300 298 297 297 296 295 294 293 293 294 296 297
283 281 279 294 295 289 294 299 303 303 307 306 308 310 309 309 307 306 305 305 304 303 302 304 304 301 298 297 298 299 300 299 298 296 297 298 294 294 293 294 295 295 295 296
286 284 292 296 296 299 300 300 301 302 307 306 305 303 304 304 305 305 304 303 303 301 300 300 300 299 296 296 298 298 296 295 295 295 296 295 293 295 291 291 294 294 293 293
288 292 294 296 299 300 300 301 305 309 307 306 303 303 302 301 300 301 303 302 301 300 298 298 300 299 297 297 297 296 294 293 293 292 292 292 293 293 294 294 293 293 293 292
289 293 296 297 297 297 299 303 304 304 303 302 301 299 299 298 297 298 299 299 299 298 297 297 298 297 298 298 297 294 293 292 291 291 291 293 294 294 295 296 295 294 293 293
287 293 293 295 296 297 300 302 303 302 301 301 300 299 298 297 298 299 298 298 297 297 296 296 298 297 297 297 295 293 291 291 294 294 295 295 294 294 295 294 293 293 292 292
293 296 294 295 297 304 302 303 302 301 300 299 299 298 298 297 298 299 298 297 296 296 297 297 296 295 295 297 295 294 291 292 293 293 292 291 292 292 291 293 294 293 292 292
298 298 293 293 293 297 300 301 301 299 298 298 297 298 297 296 297 296 296 296 298 297 297 295 294 293 295 296 294 292 291 294 292 292 292 292 292 292 292 291 290 291 293 292
297 298 295 295 295 295 297 297 295 295 296 296 297 296 296 295 294 295 298 298 297 296 295 294 294 293 296 295 293 292 293 293 293 293 292 292 291 291 291 290 289 289 290 290
297 297 294 293 293 294 295 295 293 293 294 295 295 296 298 297 297 296 298 297 293 292 293 293 292 294 294 292 290 293 293 293 292 292 291 290 289 288 287 287 287 287 287 287
293 291 292 292 293 293 294 295 295 295 295 296 296 298 297 297 297 295 295 295 295 294 293 291 291 293 294 291 290 292 292 293 289 292 290 290 289 287 286 287 286 286 286 288
295 294 294 294 294 294 295 297 297 297 296 298 299 299 298 296 295 296 295 292 292 293 293 292 292 291 292 291 290 290 292 293 292 291 291 290 288 288 287 286 286 285 286 287
296 296 296 297 297 296 296 296 297 299 299 300 298 297 297 296 296 295 295 292 290 288 290 291 293 290 289 292 290 288 289 290 289 289 290 289 289 288 287 287 286 286 285 285
298 298 298 298 299 298 298 299 299 298 299 299 298 297 295 296 295 295 294 290 289 288 293 290 289 288 289 291 290 290 291 289 288 287 289 289 288 288 287 286 286 285 285 285
304 302 302 300 300 301 302 302 302 301 300 299 297 295 293 295 296 294 290 288 290 289 292 292 289 287 287 286 287 294 292 291 288 288 287 288 287 287 287 286 286 285 285 285
306 306 304 304 303 303 304 304 304 302 300 299 299 298 296 295 295 294 292 290 291 287 290 289 288 286 285 284 290 290 290 289 288 288 287 286 287 286 286 286 285 285 285 284
306 307 307 305 304 304 305 303 304 301 298 296 292 291 291 289 293 290 288 292 291 290 289 290 288 285 284 289 290 290 289 289 286 287 287 286 286 286 286 285 285 284 284 284
306 306 306 307 306 305 300 302 302 302 300 299 296 293 292 293 293 295 293 290 287 287 291 289 288 285 284 291 291 289 288 288 285 287 287 286 285 286 286 285 285 284 284 284
306 306 305 305 304 303 303 304 302 301 301 300 300 301 299 297 293 294 293 294 288 289 294 287 286 286 292 291 290 289 287 286 284 287 286 285 284 284 285 285 284 284 284 284
304 302 304 304 303 304 302 302 300 300 299 298 299 298 296 296 296 295 294 292 294 292 294 294 292 292 292 291 290 288 287 286 285 287 286 284 284 284 283 284 284 284 284 284
304 300 303 303 304 304 302 302 300 297 298 299 298 298 297 296 294 294 291 294 294 294 293 293 292 290 291 290 289 288 287 287 286 286 285 284 283 283 282 283 284 284 284 283
Wind_Speed
26 22 19 24 22 20 13 7 8 8 8 13 20 6 8 7 6 7 11 11 13 13 14 14 14 14 14 10 14 10 9 8 9 7 7 6 6 4 3 3 3 4 6 6
21 16 14 20 22 23 18 13 8 8 8 10 16 11 14 2 7 14 18 22 22 20 19 19 12 11 13 10 9 11 11 11 9 7 7 6 4 3 1 2 3 5 5 6
11 16 22 11 11 14 16 8 5 7 14 12 14 12 13 11 12 15 14 22 23 23 17 16 14 9 10 12 11 10 11 8 8 7 6 6 5 4 2 1 3 3 4 6
9 8 9 8 14 14 17 8 17 12 15 15 14 8 12 14 16 17 7 17 18 13 10 14 15 13 16 13 11 11 7 6 8 7 7 7 6 6 5 3 3 3 3 5
7 5 14 22 10 17 13 18 15 15 16 16 20 4 14 15 18 14 15 18 18 17 19 13 16 12 14 12 9 9 9 8 10 10 9 8 7 6 5 5 4 3 3 4
6 2 4 8 18 19 1 3 16 16 14 16 18 10 7 15 22 22 21 21 21 18 18 16 11 10 12 10 12 12 8 9 9 8 7 6 5 6 3 3 3 4 6 6
9 9 6 12 20 15 7 5 16 12 9 11 8 7 11 16 22 22 21 23 21 18 16 13 13 17 15 14 13 9 9 8 8 7 6 5 4 3 4 4 5 5 8 8
4 4 2 15 12 7 6 11 12 14 9 14 14 11 17 17 21 22 23 21 20 18 18 18 14 16 15 12 7 8 7 8 8 7 4 4 4 4 4 5 9 9 9 7
2 2 7 10 4 9 10 10 9 11 2 19 18 16 24 20 18 21 19 16 17 17 17 14 12 13 12 5 7 8 8 7 6 6 6 5 5 5 4 5 8 9 7 8
6 6 7 5 7 10 12 13 13 8 15 18 16 21 17 16 18 16 11 12 15 17 12 8 9 9 7 6 6 7 6 6 6 6 6 6 5 4 7 9 7 9 8 7
2 8 8 9 11 13 16 13 16 17 20 17 19 16 19 15 16 14 13 15 12 11 9 6 7 8 7 8 8 7 6 5 5 3 5 7 6 5 6 7 7 8 8 7
3 10 7 11 17 22 6 12 11 18 21 19 19 15 14 14 13 11 13 11 11 10 8 7 9 10 7 7 6 6 6 4 4 4 5 6 6 7 8 9 11 11 12 12
4 12 13 14 19 18 17 13 17 18 15 17 11 13 13 13 14 14 12 9 7 7 8 12 12 11 8 7 8 7 5 5 5 6 7 7 8 8 10 9 12 14 14 15
10 5 11 19 13 18 16 11 14 17 15 14 15 15 14 14 11 8 7 6 8 10 12 12 11 9 7 6 6 7 7 11 6 7 7 8 8 9 8 9 10 9 8 9
9 9 12 10 15 16 13 13 16 14 13 13 11 11 10 11 9 8 9 13 14 14 11 9 6 7 7 9 9 7 7 6 6 6 7 9 8 9 8 9 9 10 10 9
4 10 11 12 11 14 14 14 12 9 9 9 7 6 9 8 8 8 11 10 8 7 8 8 6 7 9 9 8 7 6 9 7 6 7 8 7 8 8 9 9 9 8 9
7 7 6 8 8 9 8 6 7 8 9 8 7 8 10 11 9 8 10 9 8 7 6 6 7 7 6 7 6 4 4 5 6 5 7 8 8 8 8 9 9 9 9 8
6 6 7 7 6 5 4 4 6 7 7 7 8 11 10 8 6 10 7 7 7 7 6 6 6 7 6 5 5 4 4 5 5 6 6 8 8 8 10 9 9 10 9 9
7 7 6 6 6 6 6 5 6 7 8 9 8 7 6 7 8 7 8 8 7 6 6 7 9 8 7 6 5 4 5 5 5 5 8 10 8 9 9 9 10 10 10 9
5 5 6 7 7 6 5 6 7 6 6 6 6 7 7 7 8 8 7 5 5 2 5 5 6 6 6 7 9 4 5 5 5 5 8 9 10 11 10 11 11 10 10 9
5 5 4 5 6 6 5 4 4 5 6 6 7 7 7 7 7 6 7 4 6 5 5 3 4 3 4 5 5 4 5 4 5 6 8 9 11 11 11 11 11 10 10 9
7 7 1 4 6 6 5 5 7 9 7 8 7 6 6 6 6 5 4 2 3 4 3 2 3 5 4 6 4 4 5 5 5 6 8 9 10 11 11 11 11 11 10 10
8 9 3 7 6 5 6 6 7 8 6 5 4 4 2 3 1 3 1 4 3 4 2 2 6 6 6 5 4 4 5 5 4 6 8 9 9 10 11 11 11 11 10 10
7 7 6 5 5 5 5 3 6 7 6 5 5 6 3 3 3 1 3 4 8 5 2 2 6 7 5 3 4 4 4 4 3 7 8 10 9 10 11 11 11 11 11 11
4 4 7 6 2 3 6 5 5 5 6 6 6 6 6 4 4 1 1 1 6 4 3 2 7 7 3 5 5 4 4 4 3 7 9 10 10 11 11 12 12 12 11 10
6 3 4 5 3 1 1 3 2 1 3 3 3 5 4 2 4 2 2 3 5 6 5 4 5 5 5 6 5 5 5 6 5 7 9 10 11 11 12 13 13 12 11 11
3 4 6 5 4 4 4 5 4 3 4 4 3 3 4 3 3 2 3 3 4 5 4 4 5 5 4 5 5 5 6 6 6 7 9 10 10 10 11 13 12 11 11 11
Wind_Direction
314 313 307 302 282 284 271 227 174 228 235 278 291 246 178 181 168 152 173 166 174 181 177 186 172 161 174 160 152 152 147 138 122 124 117 115 104 94 73 31 11 13 7 356
302 317 322 297 288 272 278 291 296 249 232 233 251 178 118 166 223 204 190 186 175 175 175 210 167 159 169 163 144 134 132 134 122 118 123 120 114 103 85 55 29 42 16 348
272 352 333 294 290 301 305 297 308 6 324 323 255 177 176 187 204 225 175 174 177 179 185 172 173 154 131 116 110 105 113 120 119 124 102 78 68 37 357 344 89 29 7 359
284 322 257 295 333 28 2 13 8 338 335 347 327 248 179 229 224 212 171 169 172 174 142 113 109 106 104 99 94 93 66 80 78 77 72 59 43 28 14 3 52 30 347 324
227 241 283 297 306 2 337 312 17 359 358 341 331 335 38 52 74 79 89 88 101 101 108 102 101 98 88 83 90 89 89 79 64 57 53 46 32 8 352 24 355 327 309 326
247 245 288 22 347 335 29 265 360 355 356 350 331 74 67 66 77 77 77 78 81 82 91 87 93 100 95 83 79 70 63 64 69 61 53 29 6 5 7 3 336 322 301 301
206 243 259 351 328 314 207 350 325 332 358 344 15 78 96 87 80 81 79 76 75 69 65 60 74 78 72 67 61 58 52 50 52 49 39 9 12 357 332 313 314 309 299 293
328 284 272 347 342 24 313 312 328 333 347 52 34 81 76 76 80 76 74 72 67 65 62 58 55 76 68 62 58 56 50 48 41 35 8 349 331 293 285 290 311 311 306 304
255 311 264 305 353 328 331 320 321 308 348 98 81 56 72 58 66 74 75 77 78 69 56 69 72 68 74 64 60 59 50 40 21 342 348 345 335 332 325 305 317 313 306 305
323 334 359 323 1 5 357 317 320 108 98 91 93 83 71 73 74 64 55 76 84 86 76 62 85 100 92 72 63 65 57 28 25 26 351 339 331 315 312 310 304 305 302 295
236 349 320 18 3 342 324 323 105 81 78 65 79 66 80 80 77 81 79 65 66 82 88 80 71 75 69 62 64 59 42 27 359 333 300 307 305 287 288 285 277 292 298 298
314 8 358 350 334 315 303 83 89 90 84 72 64 74 71 72 75 74 69 69 61 60 60 52 60 69 56 50 56 58 29 346 326 322 321 317 313 308 289 284 298 293 277 273
339 55 31 13 336 66 77 56 79 76 86 95 89 86 75 69 66 62 66 67 74 72 57 67 56 45 26 48 45 37 16 4 9 3 341 325 320 319 314 306 281 280 282 281
36 63 38 22 12 37 51 57 68 76 67 63 70 65 65 66 57 65 75 87 82 73 59 57 47 28 353 53 44 31 20 35 10 347 333 325 318 309 303 304 308 310 299 300
67 72 70 51 22 36 54 54 63 67 73 73 66 79 84 72 60 49 65 61 53 56 52 48 37 1 31 41 26 28 23 8 351 332 330 329 323 319 314 315 314 312 314 310
106 99 95 80 61 35 24 53 58 65 69 76 84 100 96 102 91 67 73 70 71 78 62 44 20 8 52 34 22 26 5 335 332 322 335 333 327 326 322 315 309 308 307 303
49 45 88 92 83 81 72 34 55 43 48 51 55 54 55 66 68 64 71 61 53 67 66 53 23 26 52 35 24 351 334 321 318 321 334 333 333 323 317 313 311 309 305 303
97 75 52 87 133 138 128 84 66 61 57 46 43 47 49 56 79 78 83 71 42 33 40 49 49 27 10 27 5 325 312 307 313 325 329 330 325 325 325 314 313 312 312 311
81 86 86 88 80 77 80 78 65 56 44 58 59 57 59 47 72 75 73 62 47 27 355 36 27 20 353 350 358 320 303 318 320 322 334 332 331 332 326 321 319 317 313 314
118 124 129 122 121 117 99 89 103 94 75 74 65 56 43 47 63 62 68 73 53 8 51 28 17 7 343 333 340 308 319 329 332 332 334 339 335 333 331 326 323 320 320 318
7 14 43 110 114 108 105 94 87 111 93 82 66 61 54 34 67 74 54 31 336 25 17 36 13 343 319 322 320 323 337 342 340 338 338 337 334 333 331 331 328 325 322 319
12 356 334 82 97 83 77 73 66 74 66 66 61 61 58 36 41 84 102 83 311 357 346 325 318 310 306 316 304 340 347 353 338 338 340 335 337 332 330 330 328 326 323 321
80 50 42 115 115 104 79 86 96 96 100 112 117 110 109 264 303 107 18 303 313 330 292 274 286 301 311 308 325 9 3 355 328 339 337 335 333 330 328 327 327 326 323 322
50 36 54 95 112 112 114 146 124 137 146 159 160 180 184 89 354 119 182 242 276 335 247 284 282 309 335 315 7 32 3 344 326 342 336 338 335 330 330 328 328 326 324 322
57 42 35 32 76 131 180 195 144 143 161 164 184 192 177 178 134 251 69 327 275 336 50 282 300 318 2 20 26 29 4 340 334 346 341 340 335 333 330 330 328 326 324 324
85 21 342 330 36 344 332 57 90 163 151 166 181 158 149 150 148 90 135 39 28 46 49 25 0 1 33 37 15 24 4 349 349 348 344 340 334 332 330 329 327 328 327 327
91 63 56 20 359 15 12 348 81 62 36 39 86 117 129 134 102 120 60 40 57 68 58 22 358 14 37 42 15 11 8 353 345 350 346 340 334 330 331 327 325 326 326 328